Location: Berlise
(49.6641°N, 4.1077°E)
Time: 02:26:35
(UTC+00:00)

Cosmos 1892 - Pass Details

Date: 27 January 2021
Orbit: 504 x 522 km, 82.5° (Epoch: 28 February)

Event Time Altitude Azimuth Distance (km) Brightness Sun altitude
Rises 06:11:53 0° 348° (NNW) 2,648 6.0 -11.5°
Reaches altitude 10° 06:14:01 10° 346° (NNW) 1,758 5.1 -11.1°
Maximum altitude 06:17:52 72° 263° (W) 551 2.6 -10.5°
Drops below altitude 10° 06:21:42 10° 179° (S) 1,752 5.6 -9.9°
Sets 06:23:49 0° 177° (S) 2,637 6.6 -9.6°
